Regional Weather Roundup
Issued by NWS Charleston, SC

Current Version | Previous Version | Graphics & Text | Print | Product List | Glossary Off
Versions: 1 2 3 4 5 6 7 8 9 10 11 12 13 14 15 16 17 18 19 20 21 22 23 24 25 26 27 28 29 30 31 32 33 34 35 36 37 38 39 40 41 42 43 44 45 46 47 48 49 50
000 ASUS42 KCHS 301910 RWRCHS REGIONAL WEATHER ROUNDUP NATIONAL WEATHER SERVICE CHARLESTON SC 300 PM EDT THU OCT 30 2014 NOTE: "FAIR" INDICATES FEW OR NO CLOUDS BELOW 12,000 FEET WITH NO SIGNIFICANT WEATHER AND/OR OBSTRUCTIONS TO VISIBILITY. NOT ALL STATIONS ARE QUALITY CONTROLLED BY THE NATIONAL WEATHER SERVICE. USE DATA WITH CAUTION...ESPECIALLY DEWPOINT OBSERVATIONS. SCZ027-030-031-034>040-042>050-302000- ...SOUTH CAROLINA... CITY SKY/WX TMP DP RH WIND PRES REMARKS N CHARLESTON MOSUNNY 74 56 53 NE13 29.93F WATERFRONT PRK N/A 72 N/A N/A MISG N/A FORT JOHNSON NOT AVBL JOHNS ISLAND PTCLDY 73 63 68 N8 29.93F PINOPOLIS NOT AVBL MONCKS CORNER CLOUDY 68 59 73 N6 29.95F SUMMERVILLE FAIR 70 55 60 NE7 29.95F BEAUFORT MCAS MOSUNNY 74 60 61 NE6 29.90F BEAUFORT ARPT MOCLDY 72 59 64 NE5 29.93F HILTON HEAD IS PTSUNNY 70 57 64 NE5 29.95F GEORGETOWN NOT AVBL WALTERBORO CLEAR 73 46 38 NE5 29.95F ORANGEBURG SUNNY 71 46 40 VRB6 29.95F BARNWELL FAIR 73 46 38 NE9 29.95F AIKEN FAIR 70 46 43 NW6 29.99F MANNING FAIR 70 54 56 N7 29.95F KINGSTREE NOT AVBL COLUMBIA SUNNY 72 42 34 NE7 29.95F SUMTER SUNNY 71 46 42 N8 29.94F FLORENCE MOSUNNY 72 48 42 NE10 29.96F MYRTLE BEACH PTSUNNY 70 54 56 NE12 29.95F N MYRTLE BEACH SUNNY 70 52 52 N7 29.94F $$ GAZ063-065-086>088-099>101-113>116-118-119-134-136>141-150-302000- ...GEORGIA... CITY SKY/WX TMP DP RH WIND PRES REMARKS SAVANNAH ARPT MOSUNNY 75 57 53 N7 29.93F HUNTER AAF MOSUNNY 74 60 60 VRB6 29.91F FORT STEWART SUNNY 74 55 52 N3 29.92F STATESBORO NOT AVBL SYLVANIA CLEAR 78 57 47 E7 29.95F CLAXTON FAIR 72 55 56 CALM 29.95F THOMSON SUNNY 71 49 46 E7 30.01F AUGUSTA-BUSH SUNNY 72 40 31 NE8 29.95F AUGUSTA-DANIEL SUNNY 73 40 30 N8 29.97F SWAINSBORO FAIR 75 50 41 NW6 29.95F VIDALIA SUNNY 73 55 53 NE3 29.95F ALMA SUNNY 74 43 32 NW8 29.93F WAYCROSS MOSUNNY 77 49 37 W5 29.93F JESUP FAIR 77 59 53 W3 29.93F BRUNSWICK PTSUNNY 77 61 57 NW3 29.92F SAINT SIMONS MOSUNNY 75 64 68 E9 29.91F $$ SCZ027-028-034-036>038-045-046-048>050-GAZ119-141-302000- ...LAKE AND SUPPLEMENTAL COASTAL OBSERVATIONS... STATION/POSITION TIME TEMP WIND PRES WAVE SWELL AIR SEA DIR/SP/G HT/PER HT/PER/DIR (UTC) (F) (DEG/KT/KT) (MB) (FT/S) (FT/S/D) UPR LAKE MARION NOT AVBL WINYAH BAY 1800 61 340/ 5 1015.0S LAKE MURRAY 1800 67 60/ 2/ 6 1014.6F ACE BASIN NERRS 1800 74 350/ 3 1014.0F FORT PULASKI 1900 50/ 5/ 7 N/A SAPELO ISLAND NOT AVBL $$ ANZ835-935-AMZ111-154-330-350-352-354-374-450-454-472-302000- ...C-MAN AND BUOY OBSERVATIONS... STATION/POSITION TIME TEMP WIND PRES WAVE SWELL AIR SEA DIR/SP/G HT/PER HT/PER/DIR (UTC) (F) (DEG/KT/KT) (MB) (FT/S) (FT/S/D) FOLLY BEACH CMAN 1800 69 70/ 9/ 11 1014.6F BUOY 41004 1900 69 77 10/ 14/ 16 1012.6F 3/ 5 2/ 9 BUOY 41008 1900 70 75 30/ 10/ 12 1013.0F 1/ 9 5E ST. MARYS GA 1900 77 N/A 1/ 3 FRYING PAN BUOY 1900 67 72 30/ 17/ 19 1013.7F 4/ 6 BUOY 41025 NOT AVBL CAPE LOOKOUT NC 1800 64 30/ 19/ 22 1014.2F BUOY 41002 1842 77 77 270/ 10/ 12 1012.4F 3/ 5 2/140/ 5 BUOY 41010 1900 79 83 320/ 2/ 4 1012.7F 3/ 7 3/100/ 7 BUOY 41012 NOT AVBL ST AUGUSTINE FL 1900 72 30/ 6/ 7 1013.6F CAPERS NEARSHORE 1800 66 50/ 16/ 17 N/A FRIPP NEARSHORE NOT AVBL $$

USA.gov is the U.S. government's official web portal to all federal, state and local government web resources and services.